sat.trackr.live / text

‹ back to catalog

STARLINK-37187

NORAD 68399 · 2026-063V

PAYLOAD ACTIVE UNKNOWN

§ Identity

Operator
Country
US
Launch date
2026-03-26
Launch site
AFWTR
Launch vehicle
Mass (kg)
RCS (m²)

Purposes: comms

External: N2YO · Heavens-Above · Gunter

§ Orbital elements

Epoch: 2026-05-25T02:54:09.665280Z

Period
93.91 min
Inclination
97.2848°
Eccentricity
0.0002014
Mean motion
15.33457036 rev/d
Perigee alt
464.1 km
Apogee alt
466.9 km
Semi-major
6,843.6 km
B*
4.1333e-4
RAAN
287.7604°
Arg perigee
69.5458°
Mean anomaly
290.6001°
Rev number
961

§ Raw data

STARLINK-371871 68399U 26063V   26145.12094520  .00013298  00000+0  41333-3 0  99922 68399  97.2848 287.7604 0002014  69.5458 290.6001 15.33457036  9614

JSON: /api/v1/satellites/68399 · /tle

For live sub-satellite position, see the globe view (requires WebGL).

§ Visibility from observer

Set your observer location to see the next 7 days of passes ≥ 10°. The values pass through the URL so the page stays shareable.

No JS? Fill the form by hand. The geolocation button needs JavaScript.